{"data":{"norad_id":62820,"intl_designator":"2025-018Q","name":"STARLINK-32844","alt_names":[],"object_type":"PAYLOAD","status":"ACTIVE","operator":null,"country":"US","launch_date":"2025-01-24","launch_site_code":"AFWTR","launch_vehicle":null,"mission":null,"orbit_class":"UNKNOWN","rcs_meters":null,"size_class":null,"mass_kg":null,"dimensions":null,"purposes":["comms"],"wikipedia_slug":null,"has_3d_model":false,"image_url":null,"decayed_at":null,"tle_current":{"epoch":"2026-05-25T04:22:33.510720Z","epoch_age_seconds":59354,"freshness":"FRESH","line1":"1 62820U 25018Q   26145.18233230  .00015365  00000+0  50559-3 0  9990","line2":"2 62820  53.1607 314.0213 0000772  98.4650 261.6439 15.31716866 74886","mean_motion":15.31716866,"eccentricity":7.72e-5,"inclination_deg":53.1607,"raan_deg":314.0213,"arg_perigee_deg":98.465,"mean_anomaly_deg":261.6439,"bstar":0.00050559,"rev_number":7488,"period_min":94.012152765575,"perigee_km":470.16098959591,"apogee_km":471.21844844133,"semimajor_km":6848.8267190186,"source":"CELESTRAK","updated_at":"2026-05-25T13:38:19.775960Z"}}}